Date,TemperatureHighF,TemperatureAvgF,TemperatureLowF,DewpointHighF,DewpointAvgF,DewpointLowF,HumidityHigh,HumidityAvg,HumidityLow,PressureMaxIn,PressureMinIn,WindSpeedMaxMPH,WindSpeedAvgMPH,GustSpeedMaxMPH,PrecipitationSumIn
2013-3-1,37.1,34.7,30.8,34.0,31.9,24.0,96,89,76,30.10,29.99,6,2,10,0.04
2013-3-2,30.5,28.6,27.2,24.0,22.6,21.0,84,78,72,30.15,30.08,8,3,12,0.00
2013-3-3,32.3,28.6,22.5,25.0,21.7,18.0,88,75,64,30.16,30.11,6,1,12,0.00
2013-3-4,43.7,32.8,18.7,28.0,22.5,17.0,94,69,45,30.24,30.05,4,1,10,0.00
2013-3-5,39.7,37.2,31.0,38.0,32.8,26.0,97,85,60,30.06,29.63,9,1,10,0.40
2013-3-6,33.8,31.2,28.7,30.0,29.2,27.0,97,91,86,30.32,29.70,8,2,13,0.01
2013-3-7,39.6,34.5,31.4,33.0,30.3,28.0,94,85,74,30.44,30.31,4,0,6,0.22
2013-3-8,45.3,36.1,27.0,28.0,26.0,23.0,87,68,46,30.54,30.43,6,1,11,0.01
2013-3-9,58.8,44.8,29.9,38.0,32.1,27.0,89,64,42,30.44,30.08,6,1,9,0.00
2013-3-10,69.3,59.4,50.5,48.0,37.3,35.0,74,45,29,30.07,29.85,17,2,18,0.03
2013-3-11,56.9,49.0,39.1,53.0,45.2,33.0,96,87,69,29.90,29.64,12,3,21,1.24
2013-3-12,46.3,38.9,34.9,33.0,30.3,28.0,90,72,53,30.11,29.90,10,3,15,0.01
2013-3-13,34.6,30.5,27.1,32.0,25.9,20.0,95,83,69,30.38,30.06,9,2,16,0.00
2013-3-14,45.8,33.3,20.8,25.0,21.0,18.0,93,65,34,30.43,30.23,9,1,12,0.01
2013-3-15,54.4,42.3,29.9,41.0,34.5,27.0,94,75,57,30.23,29.83,7,1,10,0.00
2013-3-16,61.3,47.9,38.7,54.0,43.3,34.0,97,85,66,30.06,29.66,10,3,17,0.24
2013-3-17,38.5,36.5,34.9,34.0,31.4,29.0,91,82,77,30.19,30.04,9,2,12,0.08
2013-3-18,51.6,41.0,34.7,50.0,39.0,33.0,97,92,78,30.05,29.66,9,2,16,1.01
2013-3-19,45.7,38.2,29.8,35.0,23.6,15.0,89,59,31,30.16,29.88,17,5,27,0.00
2013-3-20,38.1,32.5,25.4,23.0,18.0,13.0,77,56,40,30.16,30.01,15,3,18,0.00
2013-3-21,33.1,26.7,21.2,16.0,13.3,9.0,75,58,44,30.11,30.01,15,2,15,0.00
2013-3-22,46.0,32.2,20.1,21.0,17.5,14.0,85,58,32,30.15,30.04,7,1,10,0.00
2013-3-23,53.0,41.7,30.6,27.0,24.1,21.0,73,52,33,30.12,29.92,8,1,10,0.00
2013-3-24,40.9,36.0,32.8,35.0,29.7,25.0,97,79,53,29.92,29.46,6,2,11,0.07
2013-3-25,35.1,33.0,30.6,33.0,31.4,29.0,97,94,91,30.00,29.48,8,2,14,0.34
2013-3-26,42.3,35.9,32.2,34.0,30.5,27.0,93,81,64,30.30,30.01,9,2,12,0.24
2013-3-27,44.6,37.4,30.1,31.0,27.6,25.0,86,69,52,30.37,30.29,6,2,12,0.00
2013-3-28,51.8,40.9,31.0,30.0,26.3,23.0,74,57,40,30.42,30.33,6,2,11,0.00
2013-3-29,56.8,44.1,29.6,35.0,30.5,27.0,90,62,36,30.38,30.24,9,1,9,0.00
2013-3-30,62.4,49.9,33.9,37.0,34.1,31.0,88,58,35,30.29,29.98,5,1,11,0.00
2013-3-31,58.3,50.8,46.5,48.0,44.3,36.0,96,80,55,29.98,29.81,12,2,16,0.08